星链-5229 (STARLINK-5229 )

导读 | 豆包AI

STARLINK-5229是美国SpaceX公司星链星座的卫星,于2022年10月28日发射升空,属于星链低轨卫星互联网组网的组成部分。它运行在近地轨道,依托星链星座架构,为全球偏远、基础设施不足区域提供高速低延迟宽带互联网服务,支撑高清视频通话、在线网络服务等应用,是星链大规模星座部署中的节点,助力实现全球全域网络覆盖目标。

Basic Information
目录编号:
54171
目录名称:
STARLINK-5229
国际标识:
2022-141Q
轨道中心:
EARTH
卫星名称:
星链-5229
卫星全名:
星链-5229 (STARLINK-5229 )
卫星状态:
已陨落 最后检测时间 2025-05-16
发射日期:
2022-10-28 UTC
国别 :
美国 (US)
星等 :
--
Orbit Information
数据来源 国际轨道数据
星历时间: 2025-05-16T03:01:32+0800
轨道信息已过期349天
半长轴: 6536.057km
偏心率: 0.0005205
轨道倾角: 53.212°
近地点辐角 285.831°
升交点赤经 243.328°
平近点角 213.949°
近地点: 154.519km
远地点: 161.325km
周期: 87.646分钟
每日圈数: 16.429679
Detailed Information
固有亮度:
5
最大亮度:
2.5
卫星平台:
Starlink v1.5
覆盖范围:
全球
运营商:
太空探索技术公司
运营商所在国:
美国
制造商(研发单位):
太空探索技术公司
制造商所在国:
美国
使用方式:
暂无
Satellite Introduction
星链(Starlink)计划是由太空探索技术公司(SpaceX)提出的一个巨型低轨卫星互联网星座项目,计划在2019年至2024年间在太空搭建由约1.2万颗卫星组成的“星链”网络,其中1584颗将部署在地球上空550千米处的近地轨道,并从2020年开始工作。该卫星仍在工作。